[[{"header":{"parameterUnit":"m.s-1","parameterCategory":1,"la1":30.2991,"la2":30.254,"lo1":-89.0895,"lo2":-89.0444,"dy":0.0017,"dx":0.0017,"nx":28,"ny":28,"refTime":"2025-12-17T09:00:00:Z","depth":0,"parameterNumber":2,"parameterNumberName":"U-component_of_WINDS"},"data":[0,0,0,0,0,0,0,0,0,0,0,0,0,0,0,0,0,0,0,0,0,0,0,0,0,0,0,0,0,0,0,0,0,0,0,0,0,0,0,0,0,0,0,0,0,0,0,0,0,0,0,0,0,0,0,0,0,0,-2.8704,-2.8704,0,-2.8617,-2.8616,-2.8615,-2.8527,-2.8526,-2.8525,-2.8524,-2.8436,-2.8434,-2.8433,0,0,0,0,0,0,0,0,0,0,0,0,0,-2.8796,-2.8795,-2.8705,-2.8703,-2.8702,-2.8618,-2.8616,-2.8615,-2.8527,-2.8526,-2.8524,-2.8523,-2.8436,-2.8435,-2.8433,0,0,0,0,0,0,0,0,0,0,0,0,0,-2.8738,-2.8794,-2.8705,-2.8648,-2.8642,-2.8618,-2.8616,-2.8615,-2.8528,-2.8526,-2.8524,-2.8522,-2.8437,-2.8435,-2.8433,-2.8457,0,0,-2.8427,-2.8427,0,0,0,0,0,0,0,0,-2.8741,-2.8734,-2.8658,-2.8652,-2.8645,-2.8581,-2.8616,-2.8562,-2.8528,-2.8571,-2.8524,-2.8521,-2.8486,-2.848,-2.8467,-2.8453,-2.845,-2.8427,-2.8426,-2.8425,-2.8425,0,0,0,0,0,0,0,-2.8745,-2.8737,-2.867,-2.8657,-2.8649,-2.8628,-2.8617,-2.8606,-2.854,-2.8567,-2.8561,-2.8552,-2.8482,-2.8469,-2.8465,-2.8448,-2.8427,-2.8426,-2.8424,-2.8424,-2.845,-2.8452,0,0,0,0,0,0,-2.8758,-2.8741,-2.8673,-2.8667,-2.869,-2.8628,-2.8616,-2.8604,-2.8539,-2.8528,-2.8553,-2.8548,-2.8473,-2.8467,-2.8461,-2.8485,-2.8425,-2.8424,-2.8422,-2.8448,-2.8451,-2.8453,0,0,0,0,0,0,-2.876,-2.8752,-2.8676,-2.8703,-2.8691,-2.8628,-2.8615,-2.8603,-2.859,-2.8529,-2.8517,-2.8552,-2.8472,-2.8464,-2.8459,-2.848,-2.8423,-2.8421,-2.8446,-2.8449,-2.8452,-2.8533,0,0,0,0,0,0,-2.8763,-2.8754,-2.8762,-2.8703,-2.869,-2.8675,-2.8616,-2.8602,-2.8587,-2.8579,-2.8525,-2.8514,-2.847,-2.8462,-2.8457,-2.8477,-2.842,-2.8444,-2.8448,-2.8451,-2.8528,-2.8538,-2.8547,0,0,0,0,0,-2.8766,-2.8788,-2.8763,-2.8755,-2.8699,-2.8676,-2.8669,-2.8617,-2.8589,-2.8597,-2.8558,-2.8516,-2.848,-2.8462,-2.8456,-2.8476,-2.8442,-2.8447,-2.845,-2.8524,-2.8536,-2.8546,0,0,0,0,0,0,-2.8851,-2.878,-2.875,-2.8754,-2.8722,-2.8662,-2.8669,-2.8632,-2.8607,-2.8601,-2.8539,-2.8527,-2.8529,-2.8502,-2.8484,-2.8496,-2.8455,-2.8458,-2.8513,-2.8524,-2.8533,-2.8539,-2.8418,0,0,0,0,0,-2.887,-2.8857,-2.8796,-2.8805,-2.8791,-2.8733,-2.8722,-2.8685,-2.8649,-2.8635,-2.8595,-2.8563,-2.8544,-2.8533,-2.8513,-2.8525,-2.8511,-2.8535,-2.8545,-2.8553,-2.8555,-2.8559,-2.8569,-2.8466,-2.8466,-2.8466,0,0,-2.8909,-2.8868,-2.8864,-2.8821,-2.8792,-2.878,-2.8722,-2.8713,-2.8703,-2.8634,-2.8626,-2.8597,-2.8556,-2.856,-2.856,-2.8537,-2.8581,-2.8558,-2.8565,-2.8563,-2.8564,-2.8574,-2.8583,-2.8469,-2.8468,-2.8468,0,0,-2.8973,-2.8942,-2.8946,-2.8918,-2.8875,-2.8837,-2.8838,-2.8784,-2.8761,-2.8753,-2.87,-2.869,-2.8659,-2.8632,-2.8614,-2.8671,-2.8631,-2.8667,-2.8715,-2.8719,-2.8727,-2.8734,-2.8753,-2.8761,-2.867,-2.867,-2.867,0,-2.9027,-2.9007,-2.8953,-2.8946,-2.8928,-2.8866,-2.8869,-2.8845,-2.8798,-2.8787,-2.8764,-2.8724,-2.8692,-2.8688,-2.8702,-2.8691,-2.869,-2.8671,-2.8731,-2.8737,-2.8742,-2.876,-2.8767,-2.8675,-2.8674,-2.8674,-2.8673,0,-2.9074,-2.9062,-2.907,-2.9026,-2.901,-2.9008,-2.8954,-2.8945,-2.891,-2.8875,-2.8868,-2.8828,-2.8798,-2.8796,-2.8762,-2.8787,-2.8775,-2.8742,-2.8699,-2.8758,-2.8773,-2.8779,-2.8681,-2.8679,-2.8678,-2.8677,0,0,-2.9186,-2.9113,-2.9117,-2.9096,-2.9045,-2.9034,-2.9031,-2.9002,-2.8994,-2.8965,-2.896,-2.8936,-2.8905,-2.8886,-2.8849,-2.8854,-2.89,-2.882,-2.8818,-2.8834,-2.8925,-2.8948,-2.8957,-2.8875,-2.8876,-2.8876,-2.8927,0,-2.9241,-2.9229,-2.9181,-2.9184,-2.9172,-2.9113,-2.911,-2.9079,-2.9047,-2.9032,-2.8997,-2.898,-2.8942,-2.8929,-2.8932,-2.8894,-2.8917,-2.889,-2.8869,-2.8869,-2.8878,-2.8965,-2.8989,-2.9039,-2.8933,-2.8934,-2.8935,0,-2.9301,-2.9275,-2.9277,-2.9227,-2.922,-2.9218,-2.9187,-2.9174,-2.9138,-2.9114,-2.9093,-2.9052,-2.9046,-2.9008,-2.8998,-2.8981,-2.897,-2.8951,-2.8951,-2.8945,-2.8903,-2.8959,-2.9054,-2.906,-2.8944,-2.8943,-2.8943,0,-2.9381,-2.9347,-2.9343,-2.9328,-2.9269,-2.9269,-2.9245,-2.9207,-2.9192,-2.9167,-2.9157,-2.9131,-2.9116,-2.9098,-2.9051,-2.9028,-2.9047,-2.9005,-2.9026,-2.9027,-2.903,-2.903,-2.9122,-2.9028,-2.9028,-2.9028,-2.9027,0,-2.9445,-2.9448,-2.9378,-2.9376,-2.9378,-2.9324,-2.9327,-2.9298,-2.9265,-2.9256,-2.9205,-2.9198,-2.9138,-2.9124,-2.9088,-2.9085,-2.908,-2.906,-2.905,-2.9063,-2.9065,-2.9053,-2.9048,-2.9029,-2.9029,-2.9029,-2.9028,0,-2.9533,-2.9486,-2.9478,-2.9424,-2.9411,-2.9415,-2.9368,-2.9364,-2.933,-2.9319,-2.9314,-2.926,-2.9242,-2.9194,-2.9164,-2.9139,-2.9146,-2.9129,-2.9157,-2.915,-2.9174,-2.9171,-2.9259,-2.9267,-2.917,-2.9171,-2.9172,0,-2.9575,-2.9576,-2.9522,-2.9513,-2.949,-2.9476,-2.9461,-2.9409,-2.9396,-2.9355,-2.9356,-2.9334,-2.9312,-2.9286,-2.9244,-2.9221,-2.9201,-2.9234,-2.9197,-2.921,-2.9199,-2.9199,-2.9198,-2.9241,-2.9242,-2.9243,-2.9244,0,-2.9655,-2.9632,-2.9613,-2.9586,-2.957,-2.9546,-2.9519,-2.9515,-2.9456,-2.9444,-2.9424,-2.9408,-2.9377,-2.9355,-2.9325,-2.9301,-2.9263,-2.9257,-2.926,-2.9272,-2.9288,-2.9277,-2.9177,-2.9254,-2.9253,-2.9252,-2.9252,-2.9251,-2.9719,-2.9717,-2.9679,-2.966,-2.9635,-2.9611,-2.9605,-2.957,-2.9552,-2.9522,-2.9494,-2.9477,-2.9442,-2.9398,-2.9376,-2.9363,-2.9343,-2.9348,-2.9349,-2.9351,-2.9356,-2.9292,-2.9358,-2.9357,-2.9357,-2.9357,-2.9356,0,-2.9795,-2.9768,-2.9751,-2.9715,-2.97,-2.9667,-2.9636,-2.9625,-2.9611,-2.9582,-2.9562,-2.954,-2.9519,-2.9477,-2.9452,-2.9449,-2.9431,-2.9444,-2.9443,-2.9437,-2.9376,-2.9374,-2.9459,-2.9459,-2.9459,-2.9459,-2.9459,-2.9459,-2.9832,-2.9826,-2.98,-2.9782,-2.9755,-2.9738,-2.9723,-2.9701,-2.9678,-2.9655,-2.9637,-2.961,-2.9575,-2.9548,-2.9527,-2.9516,-2.9508,-2.9527,-2.9509,-2.9452,-2.9442,-2.9433,-2.9431,-2.9526,-2.9526,-2.9571,-2.9572,-2.9572]},{"header":{"parameterUnit":"m.s-1","parameterCategory":1,"la1":30.2991,"la2":30.254,"lo1":-89.0895,"lo2":-89.0444,"dy":0.0017,"dx":0.0017,"nx":28,"ny":28,"refTime":"2025-12-17T09:00:00:Z","depth":0,"parameterNumber":3,"parameterNumberName":"V-component_of_WINDS"},"data":[0,0,0,0,0,0,0,0,0,0,0,0,0,0,0,0,0,0,0,0,0,0,0,0,0,0,0,0,0,0,0,0,0,0,0,0,0,0,0,0,0,0,0,0,0,0,0,0,0,0,0,0,0,0,0,0,0,0,2.2343,2.2344,0,2.243,2.2431,2.2432,2.2406,2.2404,2.2402,2.24,2.2484,2.2488,2.2492,0,0,0,0,0,0,0,0,0,0,0,0,0,2.2153,2.2156,2.2343,2.2344,2.2345,2.243,2.2431,2.2432,2.2406,2.2404,2.2402,2.2399,2.2483,2.2488,2.2492,0,0,0,0,0,0,0,0,0,0,0,0,0,2.2237,2.2157,2.2343,2.2343,2.2343,2.243,2.2431,2.2433,2.2406,2.2404,2.2401,2.2398,2.2481,2.2487,2.2493,2.2583,0,0,2.2511,2.2513,0,0,0,0,0,0,0,0,2.2232,2.2244,2.2342,2.2343,2.2344,2.2404,2.2395,2.2483,2.2407,2.2382,2.24,2.2397,2.2459,2.2467,2.2489,2.2587,2.2591,2.2511,2.2515,2.2517,2.2519,0,0,0,0,0,0,0,2.2226,2.224,2.2377,2.2343,2.2344,2.2337,2.2346,2.2411,2.2435,2.2384,2.2383,2.2394,2.246,2.2483,2.2491,2.2592,2.2511,2.2516,2.252,2.2522,2.2773,2.2776,0,0,0,0,0,0,2.222,2.2235,2.2375,2.238,2.228,2.2343,2.2353,2.2388,2.2434,2.2439,2.2396,2.2392,2.2475,2.2484,2.2494,2.2606,2.2517,2.2523,2.2526,2.277,2.2774,2.2777,0,0,0,0,0,0,2.2216,2.2233,2.2371,2.2307,2.2325,2.2349,2.2388,2.2391,2.2415,2.2443,2.2447,2.2416,2.2473,2.2485,2.2563,2.2608,2.2526,2.2531,2.2766,2.2771,2.2776,2.2829,0,0,0,0,0,0,2.2211,2.2232,2.2266,2.2308,2.2328,2.2439,2.2391,2.2394,2.2426,2.2421,2.2463,2.2467,2.2472,2.2554,2.2569,2.2615,2.2535,2.2762,2.2769,2.2774,2.2823,2.2835,2.2845,0,0,0,0,0,2.2204,2.2276,2.2268,2.2285,2.2372,2.2442,2.2453,2.2459,2.2429,2.2465,2.2484,2.2466,2.2601,2.2562,2.2578,2.2627,2.276,2.2767,2.2774,2.2818,2.2832,2.2844,0,0,0,0,0,0,2.2235,2.2281,2.2273,2.2361,2.2398,2.2437,2.2482,2.2473,2.2518,2.2512,2.2515,2.2525,2.2605,2.2623,2.2579,2.2719,2.2676,2.2686,2.2704,2.2718,2.2728,2.2723,2.254,0,0,0,0,0,2.2253,2.2307,2.2343,2.2417,2.2437,2.2456,2.2487,2.2488,2.2526,2.2541,2.2565,2.2602,2.2653,2.2686,2.2734,2.2826,2.2835,2.2867,2.2878,2.2887,2.2896,2.2949,2.2964,2.2801,2.2801,2.28,0,0,2.2288,2.232,2.2353,2.2424,2.2453,2.2509,2.2469,2.2529,2.2571,2.255,2.2626,2.2645,2.2686,2.2772,2.2811,2.279,2.2944,2.2896,2.2903,2.2907,2.2958,2.2974,2.2987,2.2805,2.2805,2.2804,0,0,2.2383,2.2412,2.2478,2.251,2.2555,2.2569,2.2585,2.2627,2.264,2.2717,2.2704,2.2752,2.2839,2.287,2.2897,2.3009,2.2995,2.3024,2.3081,2.3132,2.3145,2.3157,2.3199,2.3214,2.3033,2.3033,2.3034,0,2.2421,2.2506,2.2513,2.2576,2.2608,2.2595,2.2663,2.2692,2.2751,2.2773,2.275,2.2862,2.2888,2.2983,2.3011,2.3032,2.3052,2.3019,2.3143,2.3155,2.3166,2.3206,2.3221,2.3037,2.3036,2.3036,2.3036,0,2.2552,2.2611,2.266,2.2721,2.2758,2.2823,2.284,2.2877,2.2877,2.2893,2.2972,2.3004,2.3061,2.3083,2.3081,2.3179,2.3165,2.3142,2.3099,2.3185,2.3223,2.3238,2.3042,2.3041,2.304,2.3039,0,0,2.2666,2.2734,2.2751,2.2781,2.2832,2.2878,2.2943,2.3001,2.3034,2.3075,2.3131,2.3207,2.3188,2.3219,2.3221,2.3266,2.3356,2.3239,2.324,2.3261,2.3469,2.3486,2.3504,2.3348,2.335,2.3353,2.3466,0,2.2767,2.2884,2.2894,2.2999,2.3056,2.3046,2.3103,2.3141,2.3159,2.3208,2.3227,2.3282,2.3251,2.3271,2.3315,2.3336,2.3398,2.3328,2.34,2.3402,2.3391,2.3523,2.3542,2.3647,2.348,2.3483,2.3485,0,2.2899,2.2949,2.3061,2.3109,2.3133,2.3184,2.324,2.3288,2.3331,2.3341,2.3378,2.3375,2.3443,2.3397,2.3491,2.3443,2.3474,2.3489,2.3493,2.35,2.3449,2.3536,2.368,2.3696,2.3508,2.3506,2.3504,0,2.2975,2.3069,2.3149,2.3174,2.3231,2.3268,2.3294,2.3335,2.337,2.3419,2.3442,2.3496,2.3526,2.3569,2.3581,2.3546,2.3675,2.363,2.3686,2.3686,2.3714,2.3712,2.3866,2.3731,2.3731,2.373,2.373,0,2.3087,2.3156,2.3185,2.3234,2.3312,2.3324,2.34,2.3423,2.3461,2.3515,2.3508,2.3558,2.357,2.3623,2.3633,2.3711,2.3723,2.3734,2.3736,2.3735,2.3734,2.3755,2.3749,2.3735,2.3734,2.3733,2.3732,0,2.3184,2.3206,2.3293,2.3342,2.3356,2.3412,2.3453,2.3501,2.3519,2.3587,2.3604,2.3632,2.3694,2.371,2.3783,2.379,2.3883,2.3876,2.3869,2.3869,2.3925,2.392,2.4099,2.4124,2.3971,2.3972,2.3973,0,2.3255,2.3309,2.3365,2.3402,2.343,2.3489,2.3527,2.354,2.3579,2.3636,2.3677,2.3739,2.379,2.3889,2.3915,2.3972,2.3969,2.4028,2.3977,2.3976,2.3972,2.397,2.3976,2.4037,2.4039,2.404,2.4041,0,2.3379,2.3389,2.3444,2.3505,2.3551,2.3598,2.3644,2.3674,2.3694,2.3739,2.3804,2.3844,2.3921,2.3983,2.4041,2.4066,2.4058,2.4057,2.4074,2.4074,2.4069,2.4075,2.3897,2.4053,2.4052,2.4051,2.405,2.405,2.3467,2.3516,2.3565,2.3628,2.3665,2.3708,2.3757,2.3783,2.3839,2.3905,2.3909,2.398,2.4025,2.4103,2.4132,2.4187,2.4169,2.4192,2.4199,2.4204,2.4211,2.4059,2.4197,2.4197,2.4197,2.4197,2.4196,0,2.3594,2.3626,2.3684,2.375,2.38,2.379,2.3841,2.3883,2.3947,2.3991,2.4042,2.4119,2.418,2.4212,2.4273,2.4312,2.431,2.4327,2.4325,2.4332,2.4222,2.4203,2.4328,2.4328,2.4328,2.4328,2.4328,2.4328,2.3665,2.3749,2.3765,2.3868,2.3898,2.3971,2.4001,2.4042,2.4077,2.4164,2.4216,2.4238,2.4278,2.4342,2.4398,2.4406,2.4429,2.445,2.4456,2.4352,2.4339,2.4326,2.4308,2.4454,2.4454,2.4561,2.4562,2.4563]}]]